This demonstration page uses our WeatherBlox Daily Observations layout. Learn more.

Left ArrowRight Arrow

Hourly Observations for November 12, 2021

Temp ( °F °C ) Dew Point ( °F °C ) Humidity (%) Winds ( mph kmh ) Pressure ( in mb ) Visibility ( mi km ) Precip ( " mm )
12:53 am 00:53 Clear 18 -7.8 15 -9.4 88 88 Calm 30.43 1030 10 16 0.00 0.00
1:53 am 01:53 Clear 17 -8.3 15 -9.4 92 92 ENE 7 11 30.41 1030 10 16 0.00 0.00
2:53 am 02:53 Clear 17 -8.3 14 -10 88 88 E 9 15 30.40 1030 10 16 0.00 0.00
3:53 am 03:53 Clear 17 -8.3 14 -10 88 88 ENE 7 11 30.36 1028 10 16 0.00 0.00
4:53 am 04:53 Clear 17 -8.3 14 -10 88 88 E 8 13 30.36 1028 10 16 0.00 0.00
5:53 am 05:53 Clear 17 -8.3 14 -10 88 88 ENE 8 13 30.36 1028 10 16 0.00 0.00
6:53 am 06:53 Clear 19 -7.2 16 -8.9 88 88 E 10 17 30.31 1026 10 16 0.00 0.00
7:53 am 07:53 Sunny 19 -7.2 16 -8.9 88 88 E 10 17 30.28 1025 10 16 0.00 0.00
8:53 am 08:53 Partly Cloudy 21 -6.1 18 -7.8 88 88 E 8 13 30.27 1025 10 16 0.00 0.00
9:53 am 09:53 Mostly Cloudy 24 -4.4 21 -6.1 88 88 E 8 13 30.24 1024 10 16 0.00 0.00
10:53 am 10:53 Sunny 26 -3.3 22 -5.6 84 84 Calm 30.22 1023 10 16 0.00 0.00
11:53 am 11:53 Partly Cloudy 29 -1.7 23 -5 78 78 Calm 30.16 1021 10 16 0.00 0.00
12:53 pm 12:53 Cloudy with Light Freezing Rain 29 -1.7 25 -3.9 85 85 Calm 30.15 1021 9 14 0.00 0.00
1:35 pm 13:35 Cloudy with Light Wintry Mix 31 -0.6 26 -3.3 82 82 NNE 3 6 30.15 1021 9 14 0.02 0.51
1:53 pm 13:53 Cloudy 31 -0.6 27 -2.8 85 85 ESE 6 9 30.12 1020 10 16 0.02 0.51
2:53 pm 14:53 Cloudy 33 0.6 30 -1.1 89 89 Calm 30.08 1019 10 16 0.00 0.00
3:53 pm 15:53 Partly Cloudy 34 1.1 31 -0.6 89 89 W 3 6 30.05 1018 10 16 0.00 0.00
4:53 pm 16:53 Clear 35 1.7 31 -0.6 85 85 WNW 6 9 30.01 1016 10 16 0.00 0.00
5:53 pm 17:53 Partly Cloudy 41 5 35 1.7 79 79 W 7 11 29.98 1015 10 16 0.00 0.00
6:53 pm 18:53 Cloudy 50 10 41 5 71 71 SW 15 24 29.92 1013 10 16 0.00 0.00
7:53 pm 19:53 Cloudy 50 10 40 4.4 68 68 NW 6 9 29.91 1013 10 16 0.00 0.00
8:34 pm 20:34 Cloudy 50 10 40 4.4 68 68 SW 15 24 29.83 1010 10 16 0.00 0.00
8:53 pm 20:53 Cloudy 47 8.3 39 3.9 74 74 W 10 17 29.90 1012 10 16 0.00 0.00
9:53 pm 21:53 Mostly Cloudy 48 8.9 39 3.9 71 71 W 9 15 29.86 1011 10 16 0.00 0.00
10:53 pm 22:53 Cloudy 49 9.4 40 4.4 71 71 SW 17 28 29.84 1011 10 16 0.00 0.00
11:53 pm 23:53 Cloudy 49 9.4 40 4.4 71 71 SW 15 24 29.83 1010 10 16 0.00 0.00

Powered by AerisWeather